[[{"header":{"parameterUnit":"m.s-1","parameterCategory":1,"la1":30.2991,"la2":30.254,"lo1":-89.0895,"lo2":-89.0444,"dy":0.0017,"dx":0.0017,"nx":28,"ny":28,"refTime":"2025-08-19T21:00:00:Z","depth":0,"parameterNumber":2,"parameterNumberName":"U-component_of_WINDS"},"data":[0,0,0,0,0,0,0,0,0,0,0,0,0,0,0,0,0,0,0,0,0,0,0,0,0,0,0,0,0,0,0,0,0,0,0,0,0,0,0,0,0,0,0,0,0,0,0,0,0,0,0,0,0,0,0,0,0,0,2.8292,2.8294,0,2.8439,2.844,2.8442,2.8432,2.843,2.8428,2.8426,2.8578,2.8584,2.859,0,0,0,0,0,0,0,0,0,0,0,0,0,2.8008,2.8014,2.8292,2.8294,2.8296,2.8438,2.844,2.8442,2.8433,2.843,2.8427,2.8425,2.8576,2.8584,2.8591,0,0,0,0,0,0,0,0,0,0,0,0,0,2.8141,2.8015,2.8292,2.8308,2.8311,2.8438,2.844,2.8443,2.8433,2.843,2.8427,2.8424,2.8574,2.8583,2.8592,2.8713,0,0,2.862,2.8624,0,0,0,0,0,0,0,0,2.8133,2.8151,2.8304,2.8307,2.8311,2.8414,2.8396,2.8533,2.8434,2.8387,2.8426,2.8422,2.8526,2.8539,2.8574,2.872,2.8727,2.8621,2.8626,2.863,2.8633,0,0,0,0,0,0,0,2.8124,2.8145,2.835,2.8306,2.831,2.8309,2.8325,2.8422,2.8473,2.8391,2.839,2.8408,2.8528,2.8565,2.8577,2.8729,2.862,2.8628,2.8634,2.8638,2.8983,2.8987,0,0,0,0,0,0,2.8111,2.8137,2.8346,2.8355,2.8212,2.8317,2.8334,2.8384,2.8472,2.8482,2.841,2.8407,2.8551,2.8567,2.8583,2.8731,2.863,2.8638,2.8644,2.898,2.8984,2.8988,0,0,0,0,0,0,2.8105,2.813,2.834,2.8246,2.8273,2.8325,2.8382,2.8389,2.8426,2.8487,2.8496,2.8439,2.8549,2.857,2.8681,2.8736,2.8643,2.8651,2.8975,2.8981,2.8986,2.9028,0,0,0,0,0,0,2.8097,2.8127,2.8173,2.8247,2.8278,2.8434,2.8385,2.8394,2.8441,2.8438,2.8516,2.8526,2.8548,2.8667,2.869,2.8747,2.8658,2.8971,2.8978,2.8984,2.9022,2.9035,2.9045,0,0,0,0,0,2.8087,2.8179,2.8175,2.8201,2.8336,2.8437,2.8455,2.8478,2.8446,2.8493,2.8532,2.8523,2.8726,2.8679,2.8704,2.8765,2.8967,2.8976,2.8984,2.9017,2.9032,2.9045,0,0,0,0,0,0,2.8111,2.8189,2.8186,2.8305,2.8365,2.8436,2.8495,2.8493,2.8564,2.8558,2.8584,2.8602,2.8714,2.875,2.8696,2.8888,2.8843,2.8857,2.8859,2.8874,2.8886,2.8875,2.8665,0,0,0,0,0,2.813,2.8206,2.827,2.8369,2.8399,2.8442,2.8488,2.85,2.8563,2.8589,2.8636,2.8699,2.8777,2.8827,2.8902,2.9028,2.9045,2.9082,2.9094,2.9103,2.9115,2.9185,2.9203,2.9016,2.9016,2.9015,0,0,2.8171,2.8223,2.8269,2.8376,2.8423,2.8502,2.8464,2.8548,2.8607,2.8602,2.8709,2.8746,2.8818,2.8937,2.8992,2.8971,2.917,2.9114,2.912,2.9128,2.9196,2.9213,2.9229,2.9021,2.902,2.9019,0,0,2.8286,2.8332,2.842,2.8469,2.8541,2.8569,2.859,2.8662,2.8686,2.8794,2.8793,2.8864,2.8997,2.9049,2.9092,2.9228,2.9223,2.9251,2.9312,2.938,2.9395,2.9408,2.9458,2.9475,2.9263,2.9263,2.9263,0,2.8327,2.8444,2.8466,2.8551,2.8599,2.8597,2.8687,2.8734,2.8827,2.8861,2.8836,2.9004,2.9053,2.9184,2.9217,2.9252,2.9278,2.9243,2.9391,2.9404,2.9417,2.9465,2.9483,2.9266,2.9266,2.9265,2.9265,0,2.8493,2.8574,2.8637,2.8726,2.8781,2.8868,2.8905,2.8958,2.8966,2.8997,2.9108,2.9166,2.9253,2.9285,2.9294,2.9419,2.9404,2.9385,2.9341,2.9438,2.9483,2.9501,2.927,2.9269,2.9268,2.9268,0,0,2.8626,2.8727,2.875,2.8791,2.8872,2.8936,2.9024,2.9108,2.9154,2.9219,2.9294,2.9408,2.9391,2.9441,2.9455,2.9515,2.962,2.9489,2.9491,2.9513,2.9763,2.9777,2.9798,2.9617,2.9621,2.9624,2.9757,0,2.875,2.8904,2.8927,2.9064,2.914,2.914,2.9217,2.9276,2.9308,2.9378,2.9413,2.9494,2.9465,2.9495,2.9554,2.9595,2.9671,2.9586,2.969,2.9693,2.9672,2.9821,2.9836,2.9959,2.9775,2.9778,2.978,0,2.8914,2.8983,2.9127,2.9198,2.9231,2.9299,2.938,2.9446,2.9513,2.9532,2.9588,2.9596,2.9689,2.964,2.977,2.9711,2.9755,2.9782,2.9787,2.9798,2.9743,2.9837,2.9999,3.0018,2.9808,2.9806,2.9804,0,2.8998,2.9127,2.9231,2.9266,2.9351,2.9399,2.9437,2.95,2.955,2.9621,2.9654,2.9734,2.9779,2.9842,2.9872,2.9833,3.0,2.9953,3.002,3.0019,3.0055,3.0053,3.0227,3.0082,3.0082,3.0082,3.0081,0,2.9134,2.9223,2.927,2.9333,2.9433,2.9459,2.9558,2.9594,2.9651,2.9723,2.9728,2.9796,2.9831,2.9905,2.9929,3.0033,3.0053,3.0072,3.0078,3.0072,3.007,3.0102,3.0095,3.0087,3.0085,3.0084,3.0084,0,2.9245,2.928,2.9393,2.9464,2.9484,2.9555,2.9616,2.9679,2.971,2.9802,2.9825,2.9875,2.9962,2.9998,3.0105,3.0121,3.0241,3.024,3.0218,3.022,3.0285,3.0279,3.0487,3.0516,3.0351,3.0352,3.0353,0,2.933,2.9398,2.9476,2.9524,2.9563,2.9641,2.9692,2.972,2.9773,2.9855,2.9908,2.9995,3.0066,3.0205,3.0252,3.0334,3.0336,3.0403,3.0348,3.0341,3.0338,3.0334,3.0341,3.0413,3.0415,3.0416,3.0417,0,2.9477,2.9491,2.9563,2.9642,2.9702,2.9766,2.9829,2.9868,2.9906,2.9966,3.0054,3.0109,3.0218,3.0305,3.039,3.0431,3.0432,3.0434,3.0454,3.0449,3.0434,3.0444,3.0247,3.0429,3.0428,3.0427,3.0426,3.0426,2.9578,2.9639,2.9704,2.9785,2.9834,2.9893,2.9956,2.9995,3.0069,3.0159,3.0172,3.0267,3.0334,3.0448,3.0492,3.0568,3.0551,3.0579,3.0587,3.0594,3.0598,3.0422,3.0583,3.0583,3.0583,3.0582,3.0582,0,2.9726,2.9768,2.9842,2.9929,2.9993,2.9986,3.0055,3.011,3.0193,3.0254,3.0324,3.0427,3.0511,3.0565,3.065,3.0701,3.0703,3.0722,3.0719,3.0729,3.0608,3.0583,3.0719,3.0719,3.0719,3.0719,3.0719,3.0719,2.981,2.9914,2.9936,3.0064,3.0106,3.0198,3.0238,3.0293,3.0342,3.0456,3.0526,3.056,3.0619,3.0709,3.0787,3.08,3.0832,3.0853,3.0865,3.0751,3.0737,3.0724,3.07,3.0859,3.0859,3.098,3.0981,3.0982]},{"header":{"parameterUnit":"m.s-1","parameterCategory":1,"la1":30.2991,"la2":30.254,"lo1":-89.0895,"lo2":-89.0444,"dy":0.0017,"dx":0.0017,"nx":28,"ny":28,"refTime":"2025-08-19T21:00:00:Z","depth":0,"parameterNumber":3,"parameterNumberName":"V-component_of_WINDS"},"data":[0,0,0,0,0,0,0,0,0,0,0,0,0,0,0,0,0,0,0,0,0,0,0,0,0,0,0,0,0,0,0,0,0,0,0,0,0,0,0,0,0,0,0,0,0,0,0,0,0,0,0,0,0,0,0,0,0,0,-1.5108,-1.5109,0,-1.5225,-1.5227,-1.5228,-1.5288,-1.5288,-1.5288,-1.5288,-1.5406,-1.5409,-1.5412,0,0,0,0,0,0,0,0,0,0,0,0,0,-1.4932,-1.4935,-1.5107,-1.5109,-1.511,-1.5225,-1.5227,-1.5228,-1.5288,-1.5288,-1.5288,-1.5288,-1.5405,-1.5409,-1.5412,0,0,0,0,0,0,0,0,0,0,0,0,0,-1.5025,-1.4936,-1.5107,-1.5154,-1.5159,-1.5225,-1.5227,-1.5229,-1.5287,-1.5288,-1.5288,-1.5288,-1.5404,-1.5408,-1.5413,-1.5441,0,0,-1.5427,-1.5429,0,0,0,0,0,0,0,0,-1.502,-1.5031,-1.5145,-1.5151,-1.5157,-1.5242,-1.5209,-1.53,-1.5287,-1.5239,-1.5288,-1.5288,-1.5351,-1.536,-1.5382,-1.5446,-1.5451,-1.5428,-1.5431,-1.5433,-1.5434,0,0,0,0,0,0,0,-1.5013,-1.5027,-1.5154,-1.5147,-1.5154,-1.5168,-1.5182,-1.5226,-1.5293,-1.5243,-1.5248,-1.5261,-1.5354,-1.5377,-1.5385,-1.5453,-1.5428,-1.5432,-1.5435,-1.5436,-1.5546,-1.5546,0,0,0,0,0,0,-1.4999,-1.5021,-1.515,-1.5158,-1.5087,-1.5171,-1.5186,-1.5214,-1.5293,-1.5305,-1.5261,-1.5263,-1.5369,-1.538,-1.539,-1.5428,-1.5432,-1.5437,-1.544,-1.5546,-1.5546,-1.5546,0,0,0,0,0,0,-1.4995,-1.501,-1.5146,-1.5091,-1.5109,-1.5174,-1.5206,-1.5217,-1.524,-1.5306,-1.5318,-1.5272,-1.537,-1.5383,-1.5428,-1.5433,-1.5439,-1.5443,-1.5546,-1.5546,-1.5546,-1.5503,0,0,0,0,0,0,-1.499,-1.5009,-1.502,-1.509,-1.5112,-1.5182,-1.5206,-1.5219,-1.5248,-1.5253,-1.532,-1.5331,-1.5371,-1.5421,-1.5432,-1.5439,-1.5447,-1.5546,-1.5546,-1.5546,-1.5505,-1.5502,-1.55,0,0,0,0,0,-1.4984,-1.5003,-1.502,-1.5036,-1.5127,-1.5182,-1.5194,-1.524,-1.5248,-1.526,-1.5303,-1.5329,-1.543,-1.5425,-1.5439,-1.5447,-1.5546,-1.5546,-1.5546,-1.5506,-1.5503,-1.55,0,0,0,0,0,0,-1.493,-1.5013,-1.5033,-1.5075,-1.5121,-1.5192,-1.5208,-1.5235,-1.5279,-1.5281,-1.5336,-1.535,-1.539,-1.5423,-1.5415,-1.5478,-1.5491,-1.5494,-1.5455,-1.5453,-1.545,-1.5441,-1.5451,0,0,0,0,0,-1.4923,-1.4961,-1.5031,-1.5062,-1.5084,-1.5142,-1.5168,-1.5199,-1.5249,-1.5268,-1.5314,-1.536,-1.5403,-1.543,-1.5472,-1.551,-1.5526,-1.5522,-1.552,-1.5518,-1.552,-1.5543,-1.5542,-1.5547,-1.5547,-1.5547,0,0,-1.4909,-1.4959,-1.498,-1.5052,-1.5092,-1.513,-1.5158,-1.5197,-1.5225,-1.5274,-1.5319,-1.5354,-1.541,-1.5451,-1.5472,-1.548,-1.5522,-1.5518,-1.5516,-1.5519,-1.5543,-1.5542,-1.5542,-1.5547,-1.5547,-1.5547,0,0,-1.4903,-1.4945,-1.4975,-1.5015,-1.5074,-1.5113,-1.512,-1.5187,-1.5213,-1.5259,-1.5297,-1.5331,-1.5403,-1.5441,-1.547,-1.548,-1.5506,-1.5492,-1.5479,-1.5501,-1.5501,-1.5501,-1.5504,-1.5505,-1.5494,-1.5494,-1.5494,0,-1.4878,-1.4938,-1.4987,-1.5025,-1.5056,-1.5102,-1.5133,-1.5169,-1.5238,-1.5259,-1.5267,-1.5359,-1.5399,-1.5451,-1.5453,-1.5475,-1.5485,-1.5484,-1.5497,-1.5497,-1.5498,-1.5502,-1.5503,-1.5492,-1.5492,-1.5492,-1.5492,0,-1.4904,-1.4945,-1.4962,-1.503,-1.5063,-1.5096,-1.5151,-1.5178,-1.5207,-1.5245,-1.5292,-1.5342,-1.5396,-1.5411,-1.5439,-1.5466,-1.547,-1.5487,-1.55,-1.5495,-1.55,-1.5502,-1.5489,-1.5489,-1.549,-1.549,0,0,-1.4867,-1.4963,-1.4968,-1.5,-1.5069,-1.5101,-1.5137,-1.5191,-1.5214,-1.5261,-1.5292,-1.5352,-1.5369,-1.5402,-1.5434,-1.5453,-1.5459,-1.5469,-1.5471,-1.5465,-1.5493,-1.5479,-1.548,-1.5476,-1.5477,-1.5477,-1.5488,0,-1.4871,-1.4939,-1.4985,-1.5034,-1.5072,-1.5118,-1.5149,-1.5195,-1.5231,-1.5269,-1.5309,-1.5351,-1.5369,-1.539,-1.5411,-1.5453,-1.5465,-1.5453,-1.5506,-1.5507,-1.5491,-1.5483,-1.5469,-1.5477,-1.549,-1.5491,-1.5491,0,-1.4884,-1.4931,-1.4984,-1.5051,-1.5069,-1.5096,-1.515,-1.5185,-1.5238,-1.5263,-1.53,-1.5334,-1.5374,-1.5385,-1.544,-1.5432,-1.5456,-1.548,-1.5482,-1.5488,-1.5499,-1.549,-1.548,-1.5481,-1.5494,-1.5494,-1.5494,0,-1.4852,-1.4928,-1.497,-1.4996,-1.5074,-1.5093,-1.5126,-1.518,-1.5209,-1.5256,-1.5276,-1.5326,-1.5353,-1.5391,-1.5438,-1.5441,-1.5489,-1.5503,-1.5511,-1.551,-1.5519,-1.5517,-1.5513,-1.5534,-1.5534,-1.5534,-1.5534,0,-1.4851,-1.4882,-1.4957,-1.4983,-1.5019,-1.5072,-1.5106,-1.5143,-1.519,-1.5224,-1.5266,-1.5297,-1.5356,-1.5394,-1.5431,-1.5472,-1.5484,-1.5505,-1.5514,-1.5501,-1.5499,-1.5518,-1.5519,-1.5534,-1.5534,-1.5534,-1.5534,0,-1.4821,-1.4872,-1.4921,-1.4992,-1.5011,-1.5034,-1.5095,-1.5122,-1.5161,-1.5203,-1.5216,-1.5277,-1.5324,-1.5374,-1.5438,-1.5463,-1.5502,-1.5515,-1.5484,-1.5489,-1.5494,-1.5493,-1.5502,-1.5507,-1.5524,-1.5524,-1.5523,0,-1.4817,-1.4842,-1.4916,-1.4942,-1.4975,-1.5016,-1.5047,-1.5101,-1.5131,-1.5194,-1.5213,-1.5264,-1.5307,-1.5379,-1.5429,-1.5478,-1.5493,-1.5493,-1.5501,-1.5487,-1.5494,-1.5491,-1.5494,-1.549,-1.549,-1.549,-1.5489,0,-1.4805,-1.4829,-1.4873,-1.4925,-1.4961,-1.5005,-1.505,-1.5069,-1.5131,-1.5163,-1.5212,-1.5246,-1.5312,-1.5361,-1.5417,-1.5451,-1.548,-1.5487,-1.5491,-1.5478,-1.5459,-1.547,-1.5477,-1.5486,-1.5486,-1.5487,-1.5487,-1.5487,-1.4788,-1.4812,-1.4869,-1.4916,-1.4956,-1.4998,-1.5027,-1.507,-1.5112,-1.5171,-1.5199,-1.5248,-1.5302,-1.538,-1.5413,-1.5452,-1.5461,-1.5467,-1.5469,-1.547,-1.5467,-1.5453,-1.5462,-1.5463,-1.5463,-1.5463,-1.5463,0,-1.4778,-1.4816,-1.4859,-1.4922,-1.4959,-1.4985,-1.5037,-1.5066,-1.5109,-1.5157,-1.5199,-1.5256,-1.5305,-1.5359,-1.5411,-1.5432,-1.5447,-1.5443,-1.5442,-1.545,-1.5455,-1.5447,-1.5431,-1.5431,-1.5431,-1.5431,-1.5431,-1.5431,-1.4777,-1.482,-1.4851,-1.4915,-1.4954,-1.5003,-1.5031,-1.507,-1.5108,-1.517,-1.5211,-1.5247,-1.5297,-1.5354,-1.5399,-1.5414,-1.5431,-1.5424,-1.5443,-1.5447,-1.5449,-1.5452,-1.5444,-1.5428,-1.5427,-1.5434,-1.5434,-1.5434]}]]